Find Starlink 4499

NORAD ID: 53402 Int'l Des: 2022-097 Owner: SPXS Country: US Constellation: starlink operational
LEOCIRCULAR

当前视图

正在加载3D地球...

About Starlink 4499

Starlink 4499 (NORAD 53402) is a starlink constellation satellite (v1.5) launched Aug 10, 2022 by SPXS of US. It operates in LEO, CIRCULAR orbit with a mass of 297.00 kg.

关于 Starlink 4499

正在加载描述...

即将过境

Passes for default location (London). Set your location on the main map for personalized predictions.

高度历史

Loading altitude history...

两行轨道根数

1 53402U 22097Q 26166.36865670 .00000530 00000-0 51379-4 0 9993
2 53402 53.1608 45.5410 0001417 100.1487 259.9665 15.08829815213265
Epoch: Jun 15, 2026 • Age: 10 hours

当前状态

高度 539.8 km
速度 7.59 km/s
星下点 13.65°N, 126.81°W
发射日期 Aug 10, 2022
运行时间 3.8 years
类型 internet

技术详情

分类 Payload
质量 297.00 kg
干质量 275.00 kg
总质量 297.00 kg
长度 0.20 m
直径 2.80 m
跨度 9.00 m
形状 Box + pan
制造商 SPXS
平台类型 Starlink
阶段状态 In Orbit
所有者/国家 SPXS/US

Most Searched